Back to catalog

STARLINK-4658

AliveCommunicationsVLEO
NORAD 53612·PAYLOAD·🇺🇸 United States

Launched Aug 28, 2022 from Cape Canaveral Space Force Station

Loading…

Next Passes (next 24 hours)

TLE

FreshSource: CelesTrak SupGP

Epoch: Sep 14, 2026, 22:01 UTC

1 53612C 22104AA  26257.91784722  .00021509  00000+0  61553-3 0  2574
2 53612  53.1579  94.0429 0001258  85.2514 297.9125 15.35380391    12

Track STARLINK-4658 in real time with AllMySat

Download on the App Store